MDT,Max TemperatureF,Mean TemperatureF,Min TemperatureF,Max Dew PointF,MeanDew PointF,Min DewpointF,Max Humidity, Mean Humidity, Min Humidity, Max Sea Level PressureIn, Mean Sea Level PressureIn, Min Sea Level PressureIn, Max VisibilityMiles, Mean VisibilityMiles, Min VisibilityMiles, Max Wind SpeedMPH, Mean Wind SpeedMPH, Max Gust SpeedMPH,PrecipitationIn, CloudCover, Events, WindDirDegrees
2012-10-1,72,55,38,29,25,20,66,36,14,30.41,30.33,30.28,10,10,10,15,3,24,0.00,1,Thunderstorm,249
2012-10-2,72,54,35,29,25,19,72,37,14,30.30,30.23,30.15,10,10,10,14,2,21,0.00,0,Thunderstorm,208
2012-10-3,75,54,34,28,21,12,71,33,9,30.27,30.20,30.12,10,10,10,21,4,33,0.00,0,,234
2012-10-4,70,53,36,24,20,14,57,31,12,30.34,30.27,30.21,10,10,10,21,3,29,0.00,0,,225
2012-10-5,68,52,37,25,19,11,60,30,11,30.26,30.19,30.12,10,10,10,21,4,33,0.00,0,Thunderstorm,228
2012-10-6,66,52,38,22,8,-7,50,22,6,30.15,30.10,30.02,10,10,10,26,6,36,0.00,0,Thunderstorm,234
2012-10-7,62,46,29,19,2,-10,36,20,5,30.21,30.13,30.08,10,10,10,14,4,20,0.00,0,,188
2012-10-8,64,43,22,15,5,-4,52,23,9,30.25,30.19,30.11,10,10,10,22,3,26,0.00,0,,239
2012-10-9,67,48,29,19,15,12,54,29,12,30.26,30.19,30.14,10,10,10,17,3,25,0.00,0,,204
2012-10-10,68,49,30,23,21,17,65,36,15,30.32,30.25,30.18,10,10,10,15,2,25,0.00,0,Thunderstorm,217
2012-10-11,70,52,33,44,27,18,88,44,14,30.33,30.25,30.19,10,10,10,14,2,21,0.00,2,Rain-Thunderstorm,268
2012-10-12,60,46,33,47,40,30,93,79,50,30.28,30.18,30.04,10,10,5,20,4,33,0.00,6,Rain-Thunderstorm,210
2012-10-13,50,40,29,35,31,26,96,78,51,30.34,30.20,30.13,10,10,10,5,1,,0.00,3,,96
2012-10-14,63,46,28,34,29,24,97,62,23,30.46,30.38,30.34,10,10,10,7,1,,0.00,0,,218
2012-10-15,66,48,30,33,27,18,92,52,16,30.39,30.29,30.18,10,10,10,13,2,16,0.00,0,,202
2012-10-16,67,48,29,27,21,14,78,41,14,30.19,30.08,29.95,10,10,10,16,3,24,0.00,0,,226
2012-10-17,64,49,34,27,10,-8,65,27,6,30.16,30.03,29.94,10,10,10,21,5,26,0.00,0,,220
2012-10-18,64,44,23,12,5,0,49,24,9,30.24,30.20,30.16,10,10,10,10,1,,0.00,0,,209
2012-10-19,66,46,27,17,13,7,60,31,10,30.27,30.21,30.14,10,10,10,12,2,,0.00,0,Thunderstorm,201
2012-10-20,67,47,27,18,11,2,65,31,7,30.16,30.09,30.01,10,10,10,17,2,22,0.00,0,Thunderstorm,222
2012-10-21,62,46,30,26,18,9,59,35,20,30.12,30.07,30.04,10,10,10,15,2,22,0.00,0,,213
2012-10-22,61,46,30,27,24,21,79,47,22,30.15,30.10,30.06,10,10,10,13,2,21,0.00,0,,230
2012-10-23,63,48,34,30,24,17,71,42,16,30.16,30.09,30.04,10,10,10,21,3,28,0.00,3,,210
2012-10-24,62,48,34,24,16,-1,60,31,10,30.09,29.99,29.83,10,10,10,28,7,37,0.00,1,,248
2012-10-25,47,35,23,15,5,-4,53,29,12,30.19,30.11,30.02,10,10,10,21,6,28,0.00,0,Thunderstorm,226
2012-10-26,47,34,20,11,-9,-28,57,23,4,30.36,30.27,30.19,10,10,10,10,2,17,0.00,0,,242
2012-10-27,51,33,15,3,-3,-8,42,23,11,30.26,30.21,30.14,10,10,10,10,1,,0.00,0,,204
2012-10-28,58,40,23,15,8,2,47,29,13,30.31,30.25,30.20,10,10,10,12,2,16,0.00,0,,221
2012-10-29,63,44,24,18,15,10,68,37,13,30.36,30.31,30.25,10,10,10,13,2,17,0.00,0,,231
2012-10-30,64,46,27,17,12,4,60,30,10,30.33,30.28,30.23,10,10,5,12,2,21,0.00,0,Thunderstorm,229
2012-10-31,65,46,28,16,11,4,58,31,9,30.32,30.28,30.23,10,10,10,10,1,,0.00,0,,220